QPF
0.01 0.01 0.01 0.02 0.02 0.03 0.04 0.04 0.05 0.04 0.03 0.02 0.02 0.01 0.01 0.01 0.02 0.03 0.03 0.03 0.02 0.02 0.02 0.02 0.02 0.03 0.03 0.02 0.02 0.02 0.02 0.02 0.02 0.03 0.05 0.06 0.06 0.06
0.02 0.02 0.02 0.02 0.03 0.05 0.05 0.06 0.06 0.05 0.04 0.03 0.03 0.03 0.02 0.01 0.02 0.02 0.02 0.03 0.03 0.03 0.03 0.03 0.03 0.03 0.03 0.03 0.03 0.03 0.03 0.03 0.02 0.02 0.03 0.05 0.06 0.08
0.02 0.02 0.02 0.02 0.02 0.04 0.04 0.05 0.06 0.05 0.05 0.04 0.03 0.03 0.03 0.02 0.03 0.03 0.03 0.03 0.04 0.05 0.05 0.05 0.05 0.06 0.06 0.05 0.04 0.04 0.03 0.02 0.02 0.02 0.03 0.04 0.05 0.07
0.03 0.03 0.03 0.03 0.03 0.03 0.04 0.05 0.06 0.06 0.05 0.04 0.03 0.02 0.02 0.03 0.03 0.03 0.03 0.04 0.04 0.05 0.05 0.05 0.05 0.05 0.05 0.04 0.04 0.03 0.03 0.02 0.02 0.02 0.02 0.02 0.03 0.05
0.04 0.04 0.03 0.04 0.03 0.04 0.04 0.03 0.03 0.03 0.03 0.03 0.02 0.02 0.02 0.02 0.02 0.02 0.02 0.02 0.02 0.02 0.02 0.03 0.03 0.03 0.02 0.03 0.03 0.03 0.03 0.03 0.03 0.03 0.03 0.03 0.03 0.03
0.04 0.03 0.02 0.02 0.02 0.02 0.02 0.01 0.02 0.02 0.02 0.02 0.02 0.01 0.01 0.01 0.02 0.01 0.01 0.01 0.01 0.01 0.01 0.02 0.03 0.03 0.03 0.02 0.02 0.03 0.03 0.03 0.04 0.05 0.06 0.05 0.05 0.04
0.02 0.02 0.02 0.02 0.02 0.02 0.02 0.01 0.01 0.02 0.02 0.02 0.02 0.02 0.01 0.01 0.01 0.01 0.01 0.00 0.00 0.01 0.01 0.02 0.02 0.03 0.04 0.03 0.02 0.02 0.03 0.03 0.03 0.04 0.05 0.05 0.05 0.05
0.02 0.02 0.03 0.03 0.02 0.02 0.02 0.03 0.02 0.01 0.02 0.02 0.02 0.02 0.02 0.01 0.02 0.01 0.01 0.01 0.01 0.02 0.03 0.03 0.03 0.03 0.04 0.04 0.03 0.04 0.04 0.04 0.03 0.03 0.03 0.04 0.04 0.04
0.01 0.02 0.02 0.02 0.02 0.02 0.02 0.02 0.02 0.02 0.02 0.02 0.03 0.02 0.02 0.03 0.04 0.03 0.02 0.01 0.02 0.03 0.05 0.08 0.05 0.04 0.03 0.04 0.05 0.05 0.05 0.06 0.06 0.05 0.05 0.04 0.04 0.04
0.01 0.01 0.01 0.01 0.02 0.02 0.02 0.02 0.02 0.02 0.02 0.02 0.03 0.03 0.04 0.04 0.04 0.03 0.03 0.03 0.03 0.03 0.04 0.07 0.09 0.08 0.05 0.05 0.06 0.06 0.06 0.06 0.06 0.05 0.05 0.04 0.04 0.04
0.02 0.01 0.02 0.02 0.02 0.02 0.02 0.03 0.02 0.02 0.02 0.03 0.03 0.04 0.04 0.04 0.03 0.03 0.03 0.04 0.04 0.03 0.03 0.05 0.06 0.07 0.05 0.05 0.05 0.05 0.06 0.06 0.06 0.05 0.05 0.04 0.04 0.04
0.02 0.02 0.02 0.02 0.03 0.03 0.02 0.02 0.02 0.02 0.02 0.02 0.02 0.03 0.04 0.04 0.04 0.03 0.03 0.04 0.04 0.04 0.03 0.05 0.04 0.03 0.04 0.05 0.05 0.06 0.05 0.05 0.05 0.05 0.05 0.05 0.05 0.04
0.02 0.02 0.02 0.03 0.03 0.04 0.03 0.02 0.02 0.02 0.02 0.02 0.02 0.02 0.03 0.02 0.02 0.03 0.05 0.05 0.05 0.05 0.04 0.05 0.04 0.03 0.03 0.05 0.06 0.07 0.07 0.07 0.06 0.05 0.05 0.05 0.05 0.05
0.01 0.01 0.02 0.03 0.03 0.04 0.03 0.03 0.03 0.03 0.02 0.02 0.02 0.01 0.02 0.02 0.02 0.03 0.05 0.06 0.05 0.05 0.05 0.05 0.05 0.04 0.03 0.04 0.05 0.05 0.06 0.06 0.06 0.06 0.05 0.05 0.04 0.05
0.01 0.02 0.02 0.02 0.03 0.03 0.04 0.04 0.04 0.03 0.03 0.02 0.02 0.02 0.02 0.02 0.02 0.02 0.03 0.03 0.05 0.06 0.06 0.06 0.06 0.06 0.05 0.05 0.05 0.04 0.04 0.04 0.04 0.04 0.03 0.03 0.02 0.03
0.02 0.01 0.01 0.01 0.02 0.03 0.04 0.04 0.03 0.03 0.04 0.04 0.03 0.03 0.02 0.02 0.02 0.02 0.02 0.02 0.03 0.05 0.05 0.03 0.04 0.05 0.06 0.06 0.05 0.04 0.04 0.03 0.03 0.03 0.02 0.02 0.01 0.01
0.03 0.02 0.01 0.01 0.02 0.03 0.03 0.03 0.03 0.02 0.02 0.02 0.03 0.03 0.02 0.02 0.02 0.02 0.02 0.02 0.03 0.03 0.03 0.02 0.02 0.02 0.03 0.04 0.04 0.03 0.03 0.03 0.02 0.02 0.01 0.01 0.01 0.01
0.03 0.02 0.01 0.02 0.02 0.03 0.03 0.03 0.02 0.01 0.01 0.02 0.03 0.02 0.01 0.01 0.01 0.01 0.01 0.01 0.02 0.02 0.01 0.01 0.01 0.01 0.01 0.01 0.01 0.01 0.01 0.01 0.01 0.01 0.01 0.00 0.00 0.00
0.02 0.02 0.02 0.02 0.02 0.02 0.03 0.02 0.01 0.01 0.01 0.02 0.02 0.01 0.00 0.00 0.00 0.00 0.01 0.01 0.01 0.01 0.01 0.01 0.01 0.01 0.01 0.01 0.01 0.01 0.01 0.01 0.01 0.01 0.00 0.00 0.00 0.00
0.02 0.02 0.02 0.02 0.01 0.01 0.01 0.01 0.01 0.01 0.01 0.01 0.01 0.01 0.00 0.00 0.00 0.01 0.01 0.02 0.01 0.01 0.01 0.01 0.01 0.01 0.01 0.01 0.01 0.01 0.01 0.01 0.01 0.00 0.00 0.00 0.00 0.01
0.02 0.02 0.01 0.01 0.01 0.01 0.01 0.01 0.01 0.01 0.01 0.01 0.01 0.01 0.00 0.00 0.00 0.01 0.01 0.01 0.01 0.01 0.01 0.01 0.01 0.01 0.01 0.01 0.01 0.01 0.01 0.01 0.01 0.01 0.00 0.01 0.01 0.01
0.01 0.01 0.01 0.01 0.01 0.01 0.01 0.01 0.01 0.01 0.01 0.01 0.01 0.01 0.00 0.00 0.01 0.01 0.01 0.01 0.01 0.01 0.02 0.01 0.01 0.01 0.01 0.02 0.02 0.01 0.01 0.01 0.01 0.01 0.01 0.01 0.01 0.01
0.01 0.01 0.01 0.01 0.01 0.01 0.01 0.01 0.01 0.01 0.01 0.01 0.01 0.01 0.00 0.01 0.01 0.01 0.01 0.01 0.01 0.02 0.02 0.01 0.01 0.01 0.01 0.02 0.02 0.01 0.01 0.01 0.01 0.01 0.00 0.00 0.00 0.01
MSLP
1020.11 1020.43 1020.77 1021.11 1021.42 1021.68 1021.88 1022.01 1022.10 1022.15 1022.19 1022.25 1022.34 1022.47 1022.63 1022.81 1023.00 1023.18 1023.36 1023.53 1023.69 1023.86 1024.04 1024.23 1024.45 1024.68 1024.91 1025.12 1025.32 1025.48 1025.61 1025.71 1025.80 1025.88 1025.97 1026.08 1026.21 1026.35
1019.71 1020.02 1020.34 1020.66 1020.96 1021.23 1021.44 1021.62 1021.75 1021.86 1021.96 1022.08 1022.21 1022.37 1022.55 1022.73 1022.91 1023.09 1023.26 1023.42 1023.59 1023.76 1023.96 1024.18 1024.41 1024.66 1024.91 1025.15 1025.36 1025.53 1025.68 1025.80 1025.90 1026.01 1026.12 1026.25 1026.39 1026.54
1019.22 1019.51 1019.83 1020.14 1020.44 1020.72 1020.97 1021.19 1021.39 1021.57 1021.74 1021.92 1022.10 1022.30 1022.49 1022.68 1022.85 1023.02 1023.17 1023.32 1023.47 1023.64 1023.84 1024.06 1024.30 1024.55 1024.81 1025.05 1025.26 1025.45 1025.61 1025.75 1025.88 1026.01 1026.15 1026.30 1026.46 1026.62
1018.66 1018.95 1019.25 1019.57 1019.88 1020.19 1020.48 1020.75 1021.01 1021.25 1021.50 1021.73 1021.97 1022.20 1022.41 1022.61 1022.78 1022.94 1023.07 1023.21 1023.35 1023.50 1023.69 1023.89 1024.12 1024.35 1024.59 1024.82 1025.03 1025.22 1025.39 1025.55 1025.71 1025.87 1026.03 1026.20 1026.38 1026.55
1018.05 1018.34 1018.64 1018.96 1019.29 1019.62 1019.94 1020.26 1020.58 1020.88 1021.18 1021.47 1021.75 1022.01 1022.25 1022.46 1022.64 1022.79 1022.93 1023.05 1023.18 1023.32 1023.48 1023.66 1023.85 1024.06 1024.26 1024.47 1024.66 1024.84 1025.02 1025.19 1025.37 1025.55 1025.75 1025.94 1026.13 1026.31
1017.40 1017.68 1017.99 1018.32 1018.66 1019.01 1019.36 1019.72 1020.07 1020.41 1020.75 1021.08 1021.39 1021.68 1021.93 1022.16 1022.36 1022.52 1022.67 1022.80 1022.92 1023.05 1023.18 1023.33 1023.48 1023.65 1023.81 1023.97 1024.14 1024.30 1024.48 1024.66 1024.86 1025.07 1025.30 1025.52 1025.72 1025.91
1016.70 1016.99 1017.30 1017.63 1017.98 1018.34 1018.71 1019.08 1019.45 1019.81 1020.17 1020.51 1020.84 1021.14 1021.42 1021.67 1021.89 1022.08 1022.25 1022.40 1022.53 1022.66 1022.78 1022.89 1023.01 1023.12 1023.24 1023.36 1023.49 1023.63 1023.80 1024.00 1024.22 1024.46 1024.71 1024.95 1025.18 1025.38
1015.95 1016.23 1016.55 1016.89 1017.24 1017.61 1017.98 1018.35 1018.71 1019.07 1019.43 1019.77 1020.10 1020.42 1020.71 1020.99 1021.24 1021.47 1021.68 1021.85 1022.01 1022.14 1022.26 1022.35 1022.44 1022.51 1022.58 1022.66 1022.76 1022.89 1023.05 1023.25 1023.49 1023.75 1024.03 1024.30 1024.54 1024.75
1015.12 1015.42 1015.74 1016.09 1016.45 1016.82 1017.18 1017.54 1017.89 1018.23 1018.56 1018.89 1019.22 1019.54 1019.86 1020.16 1020.45 1020.73 1020.98 1021.20 1021.39 1021.54 1021.66 1021.75 1021.81 1021.86 1021.90 1021.95 1022.03 1022.14 1022.29 1022.50 1022.75 1023.03 1023.32 1023.60 1023.86 1024.07
1014.23 1014.55 1014.89 1015.25 1015.61 1015.97 1016.33 1016.67 1017.00 1017.32 1017.64 1017.95 1018.28 1018.60 1018.94 1019.27 1019.60 1019.92 1020.22 1020.49 1020.72 1020.91 1021.05 1021.14 1021.20 1021.24 1021.26 1021.30 1021.36 1021.46 1021.61 1021.82 1022.06 1022.34 1022.63 1022.92 1023.16 1023.37
1013.31 1013.65 1014.01 1014.38 1014.75 1015.11 1015.46 1015.79 1016.11 1016.41 1016.72 1017.03 1017.35 1017.68 1018.04 1018.40 1018.77 1019.14 1019.48 1019.80 1020.07 1020.29 1020.46 1020.58 1020.65 1020.70 1020.73 1020.76 1020.82 1020.92 1021.06 1021.25 1021.48 1021.74 1022.01 1022.26 1022.48 1022.66
1012.41 1012.76 1013.14 1013.52 1013.90 1014.26 1014.61 1014.94 1015.25 1015.55 1015.86 1016.17 1016.50 1016.85 1017.23 1017.62 1018.02 1018.42 1018.81 1019.16 1019.47 1019.73 1019.93 1020.08 1020.19 1020.26 1020.31 1020.36 1020.42 1020.52 1020.65 1020.82 1021.01 1021.23 1021.44 1021.64 1021.81 1021.93
1011.57 1011.93 1012.31 1012.69 1013.07 1013.44 1013.79 1014.12 1014.44 1014.75 1015.07 1015.40 1015.75 1016.12 1016.52 1016.94 1017.37 1017.79 1018.20 1018.58 1018.92 1019.21 1019.45 1019.64 1019.78 1019.89 1019.97 1020.05 1020.13 1020.23 1020.34 1020.48 1020.62 1020.77 1020.90 1021.02 1021.11 1021.17
1010.82 1011.17 1011.53 1011.91 1012.28 1012.65 1013.00 1013.34 1013.67 1014.00 1014.34 1014.70 1015.08 1015.48 1015.90 1016.33 1016.77 1017.21 1017.62 1018.02 1018.37 1018.68 1018.95 1019.18 1019.36 1019.52 1019.65 1019.77 1019.87 1019.97 1020.07 1020.16 1020.24 1020.30 1020.35 1020.36 1020.36 1020.34
1010.17 1010.49 1010.82 1011.17 1011.52 1011.87 1012.21 1012.56 1012.91 1013.27 1013.64 1014.03 1014.43 1014.86 1015.29 1015.73 1016.17 1016.60 1017.01 1017.40 1017.75 1018.08 1018.37 1018.63 1018.86 1019.07 1019.25 1019.41 1019.55 1019.66 1019.74 1019.79 1019.81 1019.78 1019.73 1019.65 1019.55 1019.45
1009.62 1009.88 1010.16 1010.46 1010.77 1011.09 1011.42 1011.77 1012.13 1012.51 1012.91 1013.33 1013.76 1014.20 1014.64 1015.08 1015.51 1015.92 1016.30 1016.67 1017.01 1017.33 1017.63 1017.92 1018.19 1018.45 1018.69 1018.91 1019.08 1019.21 1019.29 1019.31 1019.27 1019.17 1019.03 1018.86 1018.68 1018.51
1009.12 1009.31 1009.52 1009.75 1010.01 1010.29 1010.60 1010.94 1011.30 1011.70 1012.12 1012.56 1013.01 1013.46 1013.91 1014.33 1014.73 1015.11 1015.46 1015.79 1016.10 1016.41 1016.71 1017.02 1017.33 1017.64 1017.93 1018.20 1018.42 1018.59 1018.68 1018.69 1018.61 1018.47 1018.26 1018.02 1017.78 1017.55
1008.65 1008.75 1008.88 1009.05 1009.24 1009.48 1009.75 1010.07 1010.44 1010.84 1011.27 1011.72 1012.18 1012.64 1013.07 1013.47 1013.84 1014.18 1014.48 1014.77 1015.05 1015.34 1015.64 1015.96 1016.29 1016.64 1016.98 1017.31 1017.58 1017.79 1017.91 1017.94 1017.86 1017.70 1017.47 1017.19 1016.91 1016.66
1008.16 1008.19 1008.24 1008.33 1008.47 1008.65 1008.90 1009.19 1009.54 1009.94 1010.38 1010.83 1011.29 1011.74 1012.16 1012.53 1012.87 1013.17 1013.43 1013.68 1013.92 1014.18 1014.47 1014.79 1015.14 1015.52 1015.91 1016.28 1016.61 1016.87 1017.04 1017.11 1017.07 1016.92 1016.70 1016.43 1016.15 1015.89
1007.66 1007.61 1007.60 1007.63 1007.71 1007.85 1008.06 1008.33 1008.67 1009.05 1009.48 1009.93 1010.38 1010.82 1011.22 1011.57 1011.88 1012.14 1012.37 1012.58 1012.79 1013.03 1013.30 1013.61 1013.98 1014.37 1014.79 1015.21 1015.59 1015.90 1016.13 1016.26 1016.28 1016.19 1016.01 1015.78 1015.52 1015.28
1007.15 1007.04 1006.98 1006.96 1007.00 1007.10 1007.27 1007.52 1007.83 1008.20 1008.61 1009.05 1009.48 1009.90 1010.29 1010.63 1010.91 1011.15 1011.36 1011.55 1011.74 1011.95 1012.21 1012.51 1012.87 1013.28 1013.71 1014.16 1014.58 1014.95 1015.24 1015.44 1015.54 1015.52 1015.42 1015.25 1015.04 1014.84
1006.65 1006.50 1006.39 1006.34 1006.34 1006.41 1006.56 1006.77 1007.05 1007.40 1007.78 1008.20 1008.62 1009.02 1009.39 1009.72 1010.00 1010.24 1010.44 1010.62 1010.80 1011.00 1011.25 1011.54 1011.89 1012.29 1012.73 1013.18 1013.63 1014.05 1014.40 1014.67 1014.85 1014.92 1014.91 1014.82 1014.68 1014.52
1006.17 1006.00 1005.86 1005.78 1005.75 1005.79 1005.90 1006.08 1006.33 1006.64 1006.99 1007.38 1007.77 1008.16 1008.53 1008.85 1009.14 1009.38 1009.60 1009.79 1009.98 1010.18 1010.42 1010.70 1011.04 1011.42 1011.85 1012.30 1012.76 1013.20 1013.60 1013.93 1014.18 1014.35 1014.43 1014.43 1014.37 1014.27
Thickness
5668 5666 5665 5664 5663 5662 5661 5659 5656 5654 5656 5658 5660 5662 5662 5661 5662 5662 5662 5663 5663 5663 5663 5663 5663 5662 5662 5661 5661 5660 5660 5659 5659 5658 5658 5657 5656 5656
5665 5663 5662 5661 5660 5659 5658 5657 5656 5654 5653 5655 5655 5657 5657 5658 5658 5657 5658 5659 5659 5659 5658 5658 5658 5658 5657 5657 5656 5656 5655 5655 5654 5654 5653 5652 5652 5652
5662 5660 5659 5658 5656 5656 5655 5654 5653 5651 5650 5651 5651 5651 5651 5652 5652 5652 5653 5653 5653 5653 5653 5653 5653 5653 5652 5652 5651 5651 5651 5650 5650 5649 5648 5648 5647 5647
5659 5657 5656 5655 5653 5652 5652 5651 5650 5648 5647 5646 5646 5645 5645 5646 5646 5646 5647 5647 5647 5648 5648 5648 5647 5647 5647 5647 5647 5647 5646 5646 5645 5645 5644 5644 5643 5642
5657 5655 5654 5652 5650 5649 5648 5647 5646 5645 5643 5642 5641 5640 5639 5639 5639 5640 5640 5640 5641 5641 5642 5642 5642 5642 5642 5641 5641 5641 5641 5641 5641 5640 5639 5639 5639 5638
5654 5653 5651 5649 5647 5646 5645 5643 5642 5640 5638 5637 5636 5635 5634 5634 5633 5633 5633 5634 5634 5635 5635 5636 5636 5636 5636 5636 5636 5636 5636 5636 5635 5635 5635 5634 5634 5634
5650 5649 5648 5646 5645 5643 5642 5640 5638 5636 5634 5633 5631 5630 5630 5629 5629 5628 5628 5628 5628 5628 5629 5630 5630 5630 5630 5630 5631 5631 5630 5631 5630 5630 5630 5630 5629 5629
5646 5645 5644 5642 5641 5640 5639 5637 5636 5633 5631 5629 5628 5627 5627 5626 5625 5624 5622 5622 5622 5623 5622 5623 5623 5624 5625 5625 5626 5626 5626 5626 5626 5625 5625 5625 5624 5624
5642 5640 5640 5639 5637 5636 5634 5633 5632 5631 5630 5628 5626 5626 5625 5624 5622 5620 5618 5617 5617 5617 5615 5617 5618 5618 5619 5620 5620 5621 5621 5621 5621 5621 5620 5620 5619 5619
5638 5636 5635 5634 5633 5631 5629 5628 5626 5626 5625 5624 5623 5623 5622 5621 5618 5617 5614 5612 5611 5609 5609 5610 5612 5612 5614 5614 5614 5614 5614 5614 5615 5615 5615 5614 5614 5613
5634 5633 5631 5630 5629 5626 5624 5622 5621 5621 5620 5619 5619 5618 5617 5615 5613 5611 5608 5607 5607 5606 5603 5604 5606 5606 5607 5607 5607 5607 5608 5608 5608 5608 5608 5608 5608 5607
5629 5628 5626 5625 5623 5621 5619 5617 5616 5616 5615 5614 5612 5612 5611 5610 5608 5607 5606 5604 5602 5602 5601 5599 5600 5599 5601 5601 5600 5600 5600 5600 5600 5601 5601 5601 5600 5599
5625 5623 5622 5620 5618 5616 5614 5614 5613 5611 5609 5608 5606 5605 5605 5604 5603 5602 5601 5600 5598 5598 5597 5594 5594 5593 5594 5594 5593 5593 5592 5592 5592 5593 5594 5594 5593 5592
5621 5620 5618 5615 5614 5612 5610 5609 5607 5605 5603 5601 5600 5599 5599 5598 5598 5596 5595 5595 5593 5593 5592 5590 5589 5588 5587 5587 5587 5587 5586 5585 5585 5586 5586 5586 5586 5585
5618 5616 5613 5611 5609 5607 5606 5604 5602 5600 5598 5596 5595 5594 5593 5592 5591 5590 5590 5589 5589 5588 5587 5585 5585 5583 5582 5581 5582 5581 5580 5580 5579 5579 5579 5579 5579 5578
5612 5610 5608 5606 5604 5603 5601 5599 5597 5594 5592 5591 5590 5589 5587 5586 5585 5584 5584 5584 5584 5584 5582 5581 5579 5578 5577 5576 5576 5575 5575 5574 5574 5573 5573 5572 5572 5571
5606 5604 5602 5600 5599 5598 5596 5594 5592 5589 5587 5585 5584 5584 5583 5582 5581 5580 5578 5577 5577 5578 5577 5576 5574 5572 5571 5570 5570 5571 5570 5570 5569 5568 5566 5567 5567 5566
5600 5598 5596 5595 5593 5592 5591 5589 5587 5585 5583 5582 5581 5580 5579 5578 5577 5575 5574 5573 5572 5572 5571 5570 5568 5567 5566 5566 5565 5565 5565 5565 5564 5562 5560 5560 5562 5561
5593 5592 5590 5589 5588 5587 5586 5584 5583 5581 5579 5577 5576 5575 5574 5573 5572 5571 5569 5569 5568 5567 5566 5563 5562 5561 5562 5563 5563 5559 5559 5559 5557 5556 5554 5554 5555 5556
5586 5585 5584 5584 5583 5582 5580 5579 5578 5576 5574 5573 5571 5570 5569 5568 5567 5566 5565 5564 5563 5561 5560 5558 5556 5556 5555 5556 5556 5555 5553 5552 5551 5551 5550 5548 5548 5548
5580 5579 5578 5577 5577 5575 5574 5573 5572 5570 5569 5568 5566 5565 5564 5563 5562 5562 5560 5557 5556 5555 5554 5554 5552 5550 5548 5547 5548 5550 5548 5546 5545 5544 5544 5543 5543 5543
5575 5574 5572 5571 5570 5568 5567 5565 5564 5563 5562 5561 5560 5559 5558 5557 5557 5556 5555 5554 5552 5551 5550 5549 5546 5544 5543 5543 5544 5544 5542 5541 5539 5537 5536 5536 5536 5538
5569 5568 5566 5565 5564 5562 5560 5558 5557 5556 5555 5554 5554 5553 5552 5551 5551 5551 5550 5549 5548 5547 5545 5544 5542 5540 5538 5537 5537 5536 5536 5535 5534 5533 5532 5531 5530 5530